{"data":{"norad_id":55435,"intl_designator":"2023-014AW","name":"STARLINK-5626","alt_names":[],"object_type":"PAYLOAD","status":"ACTIVE","operator":null,"country":"US","launch_date":"2023-01-31","launch_site_code":"AFWTR","launch_vehicle":null,"mission":null,"orbit_class":"UNKNOWN","rcs_meters":null,"size_class":null,"mass_kg":null,"dimensions":null,"purposes":["comms"],"wikipedia_slug":null,"has_3d_model":false,"image_url":null,"decayed_at":null,"tle_current":{"epoch":"2026-05-25T02:11:38.936832Z","epoch_age_seconds":74031,"freshness":"FRESH","line1":"1 55435U 23014AW  26145.09142288  .00000878  00000+0  81355-4 0  9992","line2":"2 55435  69.9994 271.7873 0002779 277.8712  82.2132 14.98332085182512","mean_motion":14.98332085,"eccentricity":0.0002779,"inclination_deg":69.9994,"raan_deg":271.7873,"arg_perigee_deg":277.8712,"mean_anomaly_deg":82.2132,"bstar":8.1355e-5,"rev_number":18251,"period_min":96.106865388256,"perigee_km":570.1179864488,"apogee_km":573.98090007397,"semimajor_km":6950.1864432614,"source":"CELESTRAK","updated_at":"2026-05-25T13:38:17.801086Z"}}}